Time,TemperatureF,DewpointF,PressureIn,WindDirection,WindDirectionDegrees,WindSpeedMPH,WindSpeedGustMPH,Humidity,HourlyPrecipIn,Conditions,Clouds,dailyrainin,SolarRadiationWatts/m^2,SoftwareType,DateUTC
2013-08-27 00:01:00,54.0,54.0,-100.00,SE,140,2.0,3.0,99,0.00,,,0.19,0.000000,,2013-08-27 07:01:00,
2013-08-27 00:12:00,54.0,54.0,-100.00,SE,140,2.0,3.0,99,0.00,,,0.19,0.000000,,2013-08-27 07:12:00,
2013-08-27 00:21:00,54.0,54.0,-100.00,SE,140,2.0,3.0,99,0.00,,,0.19,0.000000,,2013-08-27 07:21:00,
2013-08-27 00:52:00,54.0,54.0,-100.00,SE,141,2.0,3.0,99,0.00,,,0.19,0.000000,,2013-08-27 07:52:00,
2013-08-27 01:02:00,54.0,54.0,-100.00,SE,141,2.0,3.0,99,0.00,,,0.19,0.000000,,2013-08-27 08:02:00,
2013-08-27 01:11:00,54.0,54.0,-100.00,SE,141,2.0,3.0,99,0.00,,,0.19,0.000000,,2013-08-27 08:11:00,
2013-08-27 01:22:00,54.0,54.0,-100.00,SE,141,2.0,3.0,99,0.00,,,0.19,0.000000,,2013-08-27 08:22:00,
2013-08-27 01:52:00,54.0,54.0,-100.00,SE,132,1.0,3.0,99,0.00,,,0.18,0.000000,,2013-08-27 08:52:00,
2013-08-27 02:01:00,54.0,54.0,-100.00,SE,132,1.0,3.0,99,0.00,,,0.18,0.000000,,2013-08-27 09:01:00,
2013-08-27 02:11:00,54.0,54.0,-100.00,SE,132,1.0,3.0,99,0.00,,,0.18,0.000000,,2013-08-27 09:11:00,
2013-08-27 02:21:00,54.0,54.0,-100.00,SE,132,1.0,3.0,99,0.00,,,0.18,0.000000,,2013-08-27 09:21:00,
2013-08-27 02:54:00,54.0,54.0,-100.00,SE,135,1.0,2.0,99,0.00,,,0.18,0.000000,,2013-08-27 09:54:00,
2013-08-27 03:05:00,54.0,54.0,-100.00,SE,135,1.0,2.0,99,0.00,,,0.18,0.000000,,2013-08-27 10:05:00,
2013-08-27 03:14:00,54.0,54.0,-100.00,SE,135,1.0,2.0,99,0.00,,,0.18,0.000000,,2013-08-27 10:14:00,
2013-08-27 03:25:00,54.0,54.0,-100.00,SE,135,1.0,2.0,99,0.00,,,0.18,0.000000,,2013-08-27 10:25:00,
2013-08-27 03:53:00,54.0,54.0,-100.00,SE,146,1.0,3.0,99,0.00,,,0.18,0.000000,,2013-08-27 10:53:00,
2013-08-27 04:03:00,54.0,54.0,-100.00,SE,146,1.0,3.0,99,0.00,,,0.18,0.000000,,2013-08-27 11:03:00,
2013-08-27 04:12:00,54.0,54.0,-100.00,SE,146,1.0,3.0,99,0.00,,,0.18,0.000000,,2013-08-27 11:12:00,
2013-08-27 04:22:00,54.0,54.0,-100.00,SE,146,1.0,3.0,99,0.00,,,0.18,0.000000,,2013-08-27 11:22:00,
2013-08-27 04:52:00,54.0,54.0,-100.00,SE,142,0.0,3.0,99,0.00,,,0.18,0.000000,,2013-08-27 11:52:00,
2013-08-27 05:02:00,54.0,54.0,-100.00,SE,142,0.0,3.0,99,0.00,,,0.18,0.000000,,2013-08-27 12:02:00,
2013-08-27 05:11:00,54.0,54.0,-100.00,SE,142,0.0,3.0,99,0.00,,,0.18,0.000000,,2013-08-27 12:11:00,
2013-08-27 05:21:00,54.0,54.0,-100.00,SE,142,0.0,3.0,99,0.00,,,0.18,0.000000,,2013-08-27 12:21:00,
2013-08-27 05:52:00,54.0,54.0,-100.00,SSE,148,1.0,2.0,99,0.00,,,0.18,0.000000,,2013-08-27 12:52:00,
2013-08-27 06:01:00,54.0,54.0,-100.00,SSE,148,1.0,2.0,99,0.00,,,0.18,0.000000,,2013-08-27 13:01:00,
2013-08-27 06:11:00,54.0,54.0,-100.00,SSE,148,1.0,2.0,99,0.00,,,0.18,0.000000,,2013-08-27 13:11:00,
2013-08-27 06:22:00,54.0,54.0,-100.00,SSE,148,1.0,2.0,99,0.00,,,0.18,0.000000,,2013-08-27 13:22:00,
2013-08-27 06:52:00,54.0,54.0,-100.00,South,170,0.0,3.0,99,0.00,,,0.18,1.000000,,2013-08-27 13:52:00,
2013-08-27 07:02:00,54.0,54.0,-100.00,South,170,0.0,3.0,99,0.00,,,0.18,1.000000,,2013-08-27 14:02:00,
2013-08-27 07:11:00,54.0,54.0,-100.00,South,170,0.0,3.0,99,0.00,,,0.18,1.000000,,2013-08-27 14:11:00,
2013-08-27 07:22:00,54.0,54.0,-100.00,South,170,0.0,3.0,99,0.00,,,0.18,1.000000,,2013-08-27 14:22:00,
2013-08-27 07:53:00,55.0,55.0,-100.00,SE,130,2.0,3.0,99,0.00,,,0.18,30.000000,,2013-08-27 14:53:00,
2013-08-27 08:01:00,55.0,55.0,-100.00,SE,130,2.0,3.0,99,0.00,,,0.18,30.000000,,2013-08-27 15:01:00,
2013-08-27 08:11:00,55.0,55.0,-100.00,SE,130,2.0,3.0,99,0.00,,,0.18,30.000000,,2013-08-27 15:11:00,
2013-08-27 08:22:00,55.0,55.0,-100.00,SE,130,2.0,3.0,99,0.00,,,0.18,30.000000,,2013-08-27 15:22:00,
2013-08-27 08:28:00,56.0,55.0,-100.00,SSE,152,1.0,3.0,98,0.00,,,-99.99,96.000000,,2013-08-27 15:28:00,
2013-08-27 08:58:00,56.0,55.0,-100.00,SSE,152,1.0,3.0,98,0.00,,,-99.99,96.000000,,2013-08-27 15:58:00,
2013-08-27 09:09:00,56.0,55.0,-100.00,SSE,152,1.0,3.0,98,0.00,,,-99.99,96.000000,,2013-08-27 16:09:00,
2013-08-27 09:17:00,56.0,55.0,-100.00,SSE,152,1.0,3.0,98,0.00,,,-99.99,96.000000,,2013-08-27 16:17:00,
2013-08-27 09:55:00,58.0,57.0,-100.00,ESE,121,0.0,3.0,96,0.00,,,0.18,145.000000,,2013-08-27 16:55:00,
2013-08-27 10:04:00,58.0,57.0,-100.00,ESE,121,0.0,3.0,96,0.00,,,0.18,145.000000,,2013-08-27 17:04:00,
2013-08-27 10:13:00,58.0,57.0,-100.00,ESE,121,0.0,3.0,96,0.00,,,0.18,145.000000,,2013-08-27 17:13:00,
2013-08-27 10:22:00,58.0,57.0,-100.00,ESE,121,0.0,3.0,96,0.00,,,0.18,145.000000,,2013-08-27 17:22:00,
2013-08-27 11:12:00,63.0,59.0,-100.00,East,98,0.0,2.0,86,0.00,,,0.18,260.000000,,2013-08-27 18:12:00,
2013-08-27 11:21:00,63.0,59.0,-100.00,East,98,0.0,2.0,86,0.00,,,0.18,260.000000,,2013-08-27 18:21:00,
2013-08-27 11:52:00,65.0,59.0,-100.00,South,172,0.0,3.0,81,0.00,,,0.18,392.000000,,2013-08-27 18:52:00,
2013-08-27 12:01:00,65.0,59.0,-100.00,South,172,0.0,3.0,81,0.00,,,0.18,392.000000,,2013-08-27 19:01:00,
2013-08-27 12:11:00,65.0,59.0,-100.00,South,172,0.0,3.0,81,0.00,,,0.18,392.000000,,2013-08-27 19:11:00,
2013-08-27 12:22:00,65.0,59.0,-100.00,South,172,0.0,3.0,81,0.00,,,0.18,392.000000,,2013-08-27 19:22:00,
2013-08-27 12:52:00,71.0,58.0,-100.00,North,353,1.0,6.0,63,0.00,,,0.18,739.000000,,2013-08-27 19:52:00,
2013-08-27 13:02:00,71.0,58.0,-100.00,North,353,1.0,6.0,63,0.00,,,0.18,739.000000,,2013-08-27 20:02:00,
2013-08-27 13:11:00,71.0,58.0,-100.00,North,353,1.0,6.0,63,0.00,,,0.18,739.000000,,2013-08-27 20:11:00,